Crosby, ND

8:12 PM CST on November 15, 2019 (GMT -0600)
Crosby

Weather History for KD50 - September, 2019

Change the Weather History Date:

Thursday, September 5, 2019

  Actual Average (WUND) Record (WUND)
Temperature  
Mean Temperature 64 °F -  
Max Temperature 78 °F - - (-1)
Min Temperature 50 °F - - (-1)
Degree Days  
Heating Degree Days 1    
Growing Degree Days 14 (Base 50)    
Moisture  
Dew Point 55 °F    
Average Humidity 79    
Maximum Humidity 100    
Minimum Humidity 39    
Precipitation  
Precipitation 0.00 in - - ()
Sea Level Pressure  
Sea Level Pressure 30.04 in    
Wind  
Wind Speed 8 mph (NW)    
Max Wind Speed 16 mph    
Max Gust Speed 23 mph    
Visibility 9 miles    
Events      
Averages and records for this station are not official NWS values.
T = Trace of Precipitation, MM = Missing Value Source: NWS Daily Summary

Daily Weather History Graph

Daily Weather History Graph

Search for Another Location

Airport or City:

Astronomy

Sep. 05, 2019 Rise Set
Actual Time 7:15 AM CDT 8:27 PM CDT
Civil Twilight 6:42 AM CDT 8:59 PM CDT
Nautical Twilight 6:03 AM CDT 9:39 PM CDT
Astronomical Twilight 5:21 AM CDT 10:20 PM CDT
Moon 3:00 PM CDT (9/5) No Moon Set
Length of Visible Light 14h 17m
Length of Day
13h 12m
Waxing Crescent, 45% of the Moon is Illuminated
Sep 5
Waxing Crescent
Sep 5
First Quarter
Sep 13
Full
Sep 21
Last Quarter
Sep 28
New

Hourly Weather History & Observations

Time (CDT) Temp. Dew Point Humidity Pressure Visibility Wind Dir Wind Speed Gust Speed Precip Events Conditions
12:15 AM 60.8 °F 59.0 °F 94% 29.83 in 10.0 mi West 9.2 mph - N/A   Clear
12:35 AM 59.0 °F 59.0 °F 100% 29.84 in 10.0 mi WNW 8.1 mph - N/A   Clear
12:55 AM 59.0 °F 59.0 °F 100% 29.85 in 10.0 mi WNW 10.4 mph - N/A   Clear
1:15 AM - - N/A% 29.86 in 10.0 mi WNW 10.4 mph - N/A   Clear
1:35 AM 57.2 °F 57.2 °F 100% 29.87 in 10.0 mi WNW 10.4 mph - N/A   Clear
1:55 AM 57.2 °F 57.2 °F 100% 29.88 in 10.0 mi WNW 8.1 mph - N/A   Clear
2:15 AM 57.2 °F 57.2 °F 100% 29.89 in 10.0 mi WNW 8.1 mph - N/A   Clear
2:35 AM 55.4 °F 55.4 °F 100% 29.89 in 10.0 mi WNW 8.1 mph - N/A   Clear
2:55 AM 55.4 °F 55.4 °F 100% 29.90 in 10.0 mi WNW 8.1 mph - N/A   Clear
3:15 AM 55.4 °F 55.4 °F 100% 29.91 in 10.0 mi WNW 8.1 mph - N/A   Partly Cloudy
3:35 AM - - N/A% 29.91 in 10.0 mi WNW 8.1 mph - N/A   Clear
3:55 AM 53.6 °F 53.6 °F 100% 29.91 in 10.0 mi West 8.1 mph - N/A   Clear
4:15 AM 53.6 °F 53.6 °F 100% 29.91 in 10.0 mi Calm Calm - N/A   Clear
4:35 AM 53.6 °F 53.6 °F 100% 29.92 in 10.0 mi NW 4.6 mph - N/A   Clear
4:55 AM 50.0 °F 50.0 °F 100% 29.93 in 8.0 mi WNW 6.9 mph - N/A   Clear
5:15 AM 51.8 °F 51.8 °F 100% 29.94 in 9.0 mi WNW 8.1 mph - N/A   Clear
5:35 AM 51.8 °F 51.8 °F 100% 29.95 in 10.0 mi WNW 8.1 mph - N/A   Clear
5:55 AM 51.8 °F 51.8 °F 100% 29.96 in 10.0 mi WNW 6.9 mph - N/A   Clear
6:15 AM 51.8 °F 51.8 °F 100% 29.97 in 10.0 mi WNW 6.9 mph - N/A   Clear
6:35 AM - - N/A% 29.98 in 9.0 mi NW 5.8 mph - N/A   Clear
6:55 AM 50.0 °F 50.0 °F 100% 29.98 in 9.0 mi WNW 6.9 mph - N/A   Clear
7:15 AM 50.0 °F 50.0 °F 100% 29.98 in 6.0 mi NW 5.8 mph - N/A   Clear
7:35 AM 50.0 °F 50.0 °F 100% 30.00 in 6.0 mi WNW 4.6 mph - N/A   Mostly Cloudy
7:55 AM 50.0 °F 50.0 °F 100% 30.00 in 7.0 mi SW 4.6 mph - N/A   Overcast
8:15 AM 51.8 °F 51.8 °F 100% 30.01 in 9.0 mi WSW 4.6 mph - N/A   Overcast
8:35 AM 53.6 °F 53.6 °F 100% 30.01 in 6.0 mi West 5.8 mph - N/A   Overcast
8:55 AM 55.4 °F 55.4 °F 100% 30.02 in 4.0 mi WNW 4.6 mph - N/A   Overcast
9:15 AM 55.4 °F 55.4 °F 100% 30.03 in 2.5 mi WNW 6.9 mph - N/A   Overcast
9:35 AM 55.4 °F 55.4 °F 100% 30.03 in 4.0 mi NW 5.8 mph - N/A   Overcast
9:55 AM 57.2 °F 57.2 °F 100% 30.03 in 9.0 mi WNW 4.6 mph - N/A   Scattered Clouds
10:15 AM 59.0 °F 59.0 °F 100% 30.04 in 7.0 mi NW 6.9 mph - N/A   Partly Cloudy
10:35 AM 60.8 °F 60.8 °F 100% 30.05 in 9.0 mi NW 6.9 mph - N/A   Clear
10:55 AM 62.6 °F 60.8 °F 94% 30.05 in 10.0 mi NW 5.8 mph - N/A   Clear
11:15 AM 62.6 °F 60.8 °F 94% 30.06 in 10.0 mi Variable 4.6 mph - N/A   Clear
11:35 AM 64.4 °F 59.0 °F 83% 30.06 in 9.0 mi Variable 3.5 mph - N/A   Clear
11:55 AM 66.2 °F 59.0 °F 78% 30.07 in 10.0 mi NNW 4.6 mph - N/A   Clear
12:15 PM 68.0 °F 59.0 °F 73% 30.08 in 10.0 mi NNW 10.4 mph - N/A   Clear
12:35 PM 68.0 °F 59.0 °F 73% 30.07 in 9.0 mi North 5.8 mph 12.7 mph N/A   Clear
12:55 PM 69.8 °F 59.0 °F 68% 30.08 in 10.0 mi North 6.9 mph - N/A   Clear
1:15 PM 69.8 °F 57.2 °F 64% 30.09 in 10.0 mi NNW 9.2 mph - N/A   Clear
1:35 PM 71.6 °F 57.2 °F 60% 30.09 in 10.0 mi North 8.1 mph - N/A   Clear
2:15 PM 73.4 °F 57.2 °F 57% 30.09 in 10.0 mi NNW 8.1 mph 16.1 mph N/A   Clear
2:35 PM 73.4 °F 57.2 °F 57% 30.10 in 10.0 mi North 8.1 mph - N/A   Clear
2:55 PM 75.2 °F 55.4 °F 50% 30.10 in 10.0 mi NNW 9.2 mph - N/A   Clear
3:15 PM 75.2 °F 53.6 °F 47% 30.10 in 10.0 mi NW 9.2 mph - N/A   Clear
3:35 PM 75.2 °F 53.6 °F 47% 30.10 in 10.0 mi NNW 15.0 mph - N/A   Clear
3:55 PM 75.2 °F 55.4 °F 50% 30.10 in 10.0 mi NW 8.1 mph 15.0 mph N/A   Clear
4:15 PM 77.0 °F 55.4 °F 47% 30.11 in 10.0 mi NW 9.2 mph - N/A   Clear
4:35 PM 77.0 °F 55.4 °F 47% 30.10 in 10.0 mi NNW 9.2 mph 19.6 mph N/A   Clear
5:15 PM 78.8 °F 51.8 °F 39% 30.11 in 10.0 mi NW 16.1 mph 23.0 mph N/A   Clear
5:35 PM 77.0 °F 51.8 °F 41% 30.11 in 10.0 mi NW 10.4 mph 16.1 mph N/A   Clear
5:55 PM 78.8 °F 51.8 °F 39% 30.11 in 10.0 mi WNW 11.5 mph - N/A   Clear
6:15 PM 77.0 °F 51.8 °F 41% 30.12 in 10.0 mi NW 15.0 mph - N/A   Clear
6:35 PM 77.0 °F 51.8 °F 41% 30.12 in 10.0 mi NW 16.1 mph - N/A   Clear
6:55 PM 77.0 °F 51.8 °F 41% 30.12 in 10.0 mi NW 12.7 mph - N/A   Clear
7:15 PM 77.0 °F 51.8 °F 41% 30.12 in 10.0 mi NW 10.4 mph 17.3 mph N/A   Clear
7:35 PM 75.2 °F 50.0 °F 41% 30.13 in 10.0 mi NW 10.4 mph - N/A   Clear
7:55 PM 71.6 °F 51.8 °F 50% 30.13 in 10.0 mi NW 8.1 mph - N/A   Clear
8:15 PM 69.8 °F 53.6 °F 56% 30.13 in 10.0 mi NW 6.9 mph - N/A   Clear
8:35 PM 66.2 °F 53.6 °F 64% 30.14 in 9.0 mi NW 6.9 mph - N/A   Clear
8:55 PM 62.6 °F 53.6 °F 72% 30.14 in 9.0 mi NNW 8.1 mph - N/A   Clear
9:15 PM 62.6 °F 53.6 °F 72% 30.15 in 10.0 mi NW 6.9 mph - N/A   Clear
9:35 PM 59.0 °F 55.4 °F 88% 30.16 in 9.0 mi WNW 8.1 mph - N/A   Clear
9:55 PM 59.0 °F 53.6 °F 82% 30.16 in 10.0 mi West 8.1 mph - N/A   Clear
10:15 PM 60.8 °F 53.6 °F 77% 30.17 in 10.0 mi NW 8.1 mph - N/A   Clear
10:35 PM 59.0 °F 53.6 °F 82% 30.17 in 10.0 mi WNW 8.1 mph - N/A   Clear
10:55 PM 55.4 °F 53.6 °F 94% 30.17 in 10.0 mi WNW 5.8 mph - N/A   Clear
11:15 PM 55.4 °F 53.6 °F 94% 30.18 in 10.0 mi WNW 9.2 mph - N/A   Clear
11:35 PM 57.2 °F 53.6 °F 88% 30.18 in 10.0 mi WNW 9.2 mph - N/A   Clear
11:55 PM 55.4 °F 53.6 °F 94% 30.19 in 10.0 mi WNW 8.1 mph - N/A   Clear